ECHOSTAR 16

Last updated on Thu Mar 05 2026 00:02:56 GMT+0000 (Coordinated Universal Time)

1 39008U 12065A 26063.15044815 -.00000294 00000+0 00000+0 0 9993 2 39008 0.0204 134.8221 0002153 214.5346 165.1880 1.00271544 48594
UTC large
Height (km)
Speed (km/s)
/
Latitude / Longitude
Inclination (degrees)
Orbital Period (minutes)
Azimuth
Elevation
Range (km)
Doppler Factor

Next 0 passes for location: London (51.5072 / 0.1276)

Sorry there are no passes over London.